{"data":{"norad_id":53716,"intl_designator":"2022-107S","name":"STARLINK-4699","alt_names":[],"object_type":"PAYLOAD","status":"ACTIVE","operator":null,"country":"US","launch_date":"2022-09-05","launch_site_code":"AFETR","launch_vehicle":null,"mission":null,"orbit_class":"UNKNOWN","rcs_meters":null,"size_class":null,"mass_kg":null,"dimensions":null,"purposes":["comms"],"wikipedia_slug":null,"has_3d_model":false,"image_url":null,"decayed_at":null,"tle_current":{"epoch":"2026-05-24T20:03:49.458240Z","epoch_age_seconds":85341,"freshness":"FRESH","line1":"1 53716U 22107S   26144.83598910 -.00000992  00000+0 -44261-4 0  9996","line2":"2 53716  53.2157 271.9611 0001186  76.9615 283.1509 15.08837509205904","mean_motion":15.08837509,"eccentricity":0.0001186,"inclination_deg":53.2157,"raan_deg":271.9611,"arg_perigee_deg":76.9615,"mean_anomaly_deg":283.1509,"bstar":-4.4261e-5,"rev_number":20590,"period_min":95.43771223943,"perigee_km":538.93054144789,"apogee_km":540.57146448219,"semimajor_km":6917.888002965,"source":"CELESTRAK","updated_at":"2026-05-25T13:38:17.534447Z"}}}